Regional Weather Roundup
Issued by NWS Boston, MA

Current Version | Previous Version | Text Only | Print | Product List | Glossary On
Versions: 1 2 3 4 5 6 7 8 9 10 11 12 13 14 15 16 17 18 19 20 21 22 23 24 25 26 27 28 29 30 31 32 33 34 35 36 37 38 39 40 41 42 43 44 45 46
000 ASUS41 KBOX 312110 RWRBOX REGIONAL WEATHER ROUNDUP NATIONAL WEATHER SERVICE TAUNTON MA 500 PM EDT FRI JUL 31 2015 NOTE: "FAIR" INDICATES FEW OR NO CLOUDS BELOW 12,000 FEET WITH NO SIGNIFICANT WEATHER AND/OR OBSTRUCTIONS TO VISIBILITY. THE FOLLOWING OBSERVATION LOCATIONS DO NOT REPORT PRESENT WEATHER...PROVINCETOWN... SMITHFIELD...BLOCK ISLAND...KEENE...AND OXFORD. MAZALL-312200- EASTERN MASSACHUSETTS CITY SKY/WX TMP DP RH WIND PRES REMARKS BOSTON MOSUNNY 87 54 32 W16G30 29.75S BEVERLY SUNNY 86 53 32 W12G20 29.74R LAWRENCE SUNNY 84 55 36 W9G20 29.76S BEDFORD SUNNY 84 50 30 W14G23 29.75S BLUE HILL N/A 84 55 36 W18G26 29.77S NORWOOD SUNNY 85 55 35 W15G24 29.76R MARSHFIELD MOSUNNY 88 55 33 W10G18 29.76S PLYMOUTH MOSUNNY 88 55 32 W16G23 29.76S TAUNTON SUNNY 87 55 33 W8G20 29.75S NEW BEDFORD MOSUNNY 84 62 47 SW15 29.76S $$ MAZALL-312200- CAPE COD AND THE ISLANDS CITY SKY/WX TMP DP RH WIND PRES REMARKS FALMOUTH SUNNY 82 59 44 SW20 29.77S HYANNIS SUNNY 84 60 44 SW17G25 29.76R CHATHAM SUNNY 83 67 58 SW9G20 29.77S PROVINCETOWN SUNNY 84 61 45 W7 29.76R NANTUCKET SUNNY 80 68 66 SW14 29.79S MARTHAS VNYRD SUNNY 83 61 47 W15G22 29.79R $$ MAZALL-312200- CENTRAL AND WESTERN MASSACHUSETTS CITY SKY/WX TMP DP RH WIND PRES REMARKS WORCESTER SUNNY 81 52 36 NW10 29.82S FITCHBURG SUNNY 85 54 34 NW13G21 29.78S ORANGE MOSUNNY 83 53 35 W13G18 29.80S SPRINGFIELD SUNNY 85 53 32 NW15G21 29.78S WESTFIELD SUNNY 86 51 29 W14 29.79F NORTH ADAMS SUNNY 80 56 43 W10G16 29.81F PITTSFIELD MOSUNNY 80 54 40 W13 29.83F $$ RIZALL-312200- RHODE ISLAND CITY SKY/WX TMP DP RH WIND PRES REMARKS PROVIDENCE MOSUNNY 87 55 33 W12 29.77F NEWPORT SUNNY 81 61 50 SW6 29.78S BLOCK ISLAND N/A 82 63 51 SW16 29.81F SMITHFIELD SUNNY 82 57 42 W8G16 29.79S WESTERLY SUNNY 83 63 50 SW12 29.79F $$ CTZALL-312200- CONNECTICUT CITY SKY/WX TMP DP RH WIND PRES REMARKS BRADLEY INTL MOSUNNY 87 55 33 W12 29.78S HARTFORD MOSUNNY 87 54 32 NW8 29.78S BRIDGEPORT SUNNY 90 52 27 W12 29.79F DANBURY SUNNY 84 53 34 W7 29.83S GROTON SUNNY 83 61 47 W13 29.78F NEW HAVEN MOSUNNY 85 60 42 VRB6 29.79F CHESTER NOT AVBL MERIDEN MOSUNNY 89 54 30 W3 29.79S WILLIMANTIC SUNNY 88 55 32 NW8 29.79S OXFORD MOSUNNY 82 57 42 NW8 29.85F $$ MEZ002-015-021-024-NHZ003-005-008-011-012-014-VTZ005-008-312200- NORTHERN NEW ENGLAND CITY SKY/WX TMP DP RH WIND PRES REMARKS PORTLAND ME SUNNY 84 56 38 W12G23 29.72R BANGOR ME MOSUNNY 82 55 39 W9 29.67R CONCORD NH SUNNY 85 50 29 W13G21 29.76R MANCHESTER NH MOSUNNY 85 55 35 W7G20 29.74S NASHUA NH MOSUNNY 85 57 38 W12G21 29.76S PORTSMOUTH NH MOSUNNY 84 54 35 W15 29.72R JAFFREY NH MOSUNNY 80 54 40 W9G20 29.81F KEENE NH MOSUNNY 82 55 39 W7G16 29.79S BURLINGTON VT PTSUNNY 81 55 40 SW3 29.74F MT. WASHINGTON FOG 48 48 100 W40 N/A VSB 1/16 $$ NYZ052-076-312200- EASTERN NEW YORK CITY SKY/WX TMP DP RH WIND PRES REMARKS ALBANY MOSUNNY 85 54 34 W13 29.80F NEW YORK CITY MOSUNNY 90 50 25 W7G22 29.80F $$ ANZALL-312200- MARINE OBSERVATIONS STATION/POSITION TIME TEMP WIND PRES VSBY WAVE AIR SEA DIR/SP/G HT/PER (UTC) (F) (DEG/KT/KT) (MB) (MI) (FT/S) BOSTON BUOY 2050 76 71 280/ 8/ 10 1007.6S 1/ 8 BUZZARDS BAY 2000 220/ 18/ 19 1009.1F NANTUCKET SOUND 2050 76 73 240/ 16/ 17 1007.9R 1/ 3 MASS BAY-STELLWA 2004 77 70 250/ 8/ 12 N/A 1 7/8 2/ 8 ISLE OF SHOALS 2000 80 300/ 15/ 16 1006.0F S OF BLOCK IS 2008 75 N/A 4/ 7 $$ ......................KEY......................... SKY/WX - SKY CONDITION/PRESENT WEATHER TMP - TEMPERATURE IN FAHRENHEIT DWPT - DEWPOINT IN FAHRENHEIT RH - RELATIVE HUMIDITY IN PERCENT WIND - DIRECTION AND SPEED IN MPH PRES - MEAN SEA LEVEL PRESSURE IN INCHES OF HG WCI - WIND CHILL INDEX VSB - VISIBILITY IN MILES HX - HEAT INDEX TC - TEMPERATURE IN CELSIUS VRB - VARIABLE WIND DIRECTION N/A - NOT AVAILABLE

USA.gov is the U.S. government's official web portal to all federal, state and local government web resources and services.